KOGALNICEANU current weather conditions

sailwx.info

Wind from 260 at 20 knots

Air temperature 7.0° C
Visibility: greater than 5.4 NM
Dewpoint -3.0° C

Last reported at 2020-Jan-22 13:00 UTC.
Time now 2020-Jan-22 14:07 UTC

Location: N 44°22' E 028°29'.
View on Google Maps.

See reports from other nearby stations

  
Tides and Currents Weather Stations Pressure Air Temp Water Temp Dewpoint Dewpoint Depression Visibility Wind Speed Wind Dir Waves Ship Positions
date/time (UTC)wind fromknots sea level pressurealtimeterstation pressurevisibilityair tempwater tempwave heightnotes
2020-Jan-22 13:00 260 20 5.4 7.0
2020-Jan-22 12:30 250 19 5.4 8.0
2020-Jan-22 12:00 250 20 5.4 7.0
2020-Jan-22 11:30 260 20 5.4 7.0
2020-Jan-22 11:00 260 21 5.4 6.0
2020-Jan-22 10:30 260 15 5.4 5.0
2020-Jan-22 10:00 270 20 5.4 5.0
2020-Jan-22 09:30 270 20 5.4 3.0
2020-Jan-22 09:00 270 20 5.4 2.0
2020-Jan-22 08:30 270 22 4.3 1.0
2020-Jan-22 08:00 280 20 4.3 1.0
2020-Jan-22 07:30 270 20 4.3-0.0
2020-Jan-22 07:00 270 20 3.8-1.0
2020-Jan-22 06:30 270 20 3.2-1.0
2020-Jan-22 06:00 280 15 2.7-2.0 Mist.
2020-Jan-22 05:30 270 18 2.7-2.0 Mist.
2020-Jan-22 05:00 270 15 2.7-2.0 Mist.
2020-Jan-22 04:30 280 19 2.7-2.0 Mist.
2020-Jan-22 04:00 270 19 2.7-2.0 Mist.
2020-Jan-22 03:30 270 21 2.7-1.0 Mist.
2020-Jan-22 03:00 270 20 2.7-1.0 Mist.
2020-Jan-22 02:30 270 20 2.7-1.0 Mist.
2020-Jan-22 02:00 270 18 2.7-2.0 Mist.
2020-Jan-22 01:30 270 18 2.7-1.0 Mist.
2020-Jan-22 01:00 280 18 2.7-1.0 Mist.
2020-Jan-22 00:30 270 17 2.7-1.0 Mist.
2020-Jan-22 00:00 270 17 2.7-1.0 Mist.
2020-Jan-21 23:30 280 18 2.7-0.0 Mist.
2020-Jan-21 23:00 270 19 2.7-1.0 Mist.
2020-Jan-21 22:30 280 18 2.7-1.0 Mist.
2020-Jan-21 22:00 270 17 2.7-0.0 Mist.
2020-Jan-21 21:30 270 17 2.7-0.0 Mist.
2020-Jan-21 21:00 260 14 2.7-0.0 Mist.
2020-Jan-21 20:30 260 14 2.7-0.0 Mist.
2020-Jan-21 20:00 270 14 2.7-0.0 Mist.
2020-Jan-21 19:30 260 14 2.7-0.0 Mist.
2020-Jan-21 19:00 260 14 2.7-0.0 Mist.
2020-Jan-21 18:30 260 14 2.7-0.0 Mist.
2020-Jan-21 18:00 270 14 2.7-0.0 Mist.
2020-Jan-21 17:30 270 15 2.7 1.0 Mist.
2020-Jan-21 17:00 270 15 3.2 1.0
2020-Jan-21 16:30 270 13 3.2-0.0
2020-Jan-21 16:00 270 15 3.8 1.0
2020-Jan-21 15:30 270 14 3.8 1.0
2020-Jan-21 15:00 280 12 4.3 2.0
2020-Jan-21 14:30 270 11 5.4 2.0
2020-Jan-21 14:00 280 13 5.4 3.0
2020-Jan-21 13:30 270 13 5.4 3.0
2020-Jan-21 13:00 290 13 5.4 4.0
2020-Jan-21 12:30 270 13 5.4 4.0
2020-Jan-21 12:00 280 13 5.4 4.0
2020-Jan-21 11:30 280 15 5.4 4.0
2020-Jan-21 11:00 290 13 5.4 4.0
2020-Jan-21 10:30 270 13 5.4 3.0
2020-Jan-21 10:00 280 12 5.4 3.0
2020-Jan-21 09:30 290 11 5.4 2.0
2020-Jan-21 09:00 280 13 5.4 1.0
2020-Jan-21 08:30 280 12 4.3-0.0
2020-Jan-21 08:00 280 9 4.3-1.0
2020-Jan-21 07:30 290 8 3.8-1.0
2020-Jan-21 07:00 280 9 4.3-1.0
2020-Jan-21 06:30 270 6 5.4-1.0
2020-Jan-21 06:00 280 6 5.4-1.0
2020-Jan-21 05:30 280 8 5.4-1.0
2020-Jan-21 05:00 290 9 5.4-0.0
2020-Jan-21 04:30 290 6 5.4-0.0
2020-Jan-21 04:00 280 6 5.4-0.0
2020-Jan-21 03:30 280 6 5.4-0.0
2020-Jan-21 03:00 300 6 5.4-0.0
2020-Jan-21 02:30 320 6 5.4-0.0
2020-Jan-21 02:00 320 7 5.4-0.0
2020-Jan-21 01:30 330 6 5.4-0.0
2020-Jan-21 01:00 330 8 5.4-0.0
2020-Jan-21 00:30 320 8 5.4-0.0
2020-Jan-21 00:00 320 9 5.4-0.0
2020-Jan-20 23:30 330 8 5.4-0.0
2020-Jan-20 23:00 350 12 5.4-0.0
2020-Jan-20 22:30 350 9 5.4-0.0
2020-Jan-20 22:00 350 13 5.4-0.0
2020-Jan-20 21:30 350 12 5.4-0.0
2020-Jan-20 21:00 340 8 5.4-0.0
2020-Jan-20 20:30 330 6 5.4-0.0
2020-Jan-20 20:00 310 6 5.4-1.0
2020-Jan-20 19:30 310 6 5.4-1.0
2020-Jan-20 19:00 320 7 5.4-0.0
2020-Jan-20 18:30 320 7 5.4-0.0
2020-Jan-20 18:00 330 9 5.4-0.0
2020-Jan-20 17:30 320 9 5.4-0.0
2020-Jan-20 17:00 320 9 5.4-0.0
2020-Jan-20 16:30 320 8 5.4-0.0
2020-Jan-20 16:00 330 8 5.4-0.0
2020-Jan-20 15:30 330 7 5.4-0.0
2020-Jan-20 15:00 330 8 5.4-0.0
2020-Jan-20 14:30 320 13 5.4-0.0
2020-Jan-20 14:00 340 13 5.4-0.0